Location: New Plymouth
(39.0670°S, 174.0830°E)
Time: 03:06:28
(UTC+12:00)

Helios 1B rocket - Pass Details

Date: 24 January 2019
Orbit: 577 x 583 km, 98.2° (Epoch: 20 April)

Event Time Altitude Azimuth Distance (km) Brightness Sun altitude
Exits shadow 23:02:34 67° 58° (ENE) 637 2.3 -21.6°
Maximum altitude 23:02:58 74° 105° (ESE) 615 2.4 -21.6°
Drops below altitude 10° 23:07:08 10° 189° (S) 1,927 5.9 -22.1°
Sets 23:09:19 0° 190° (S) 2,836 7.0 -22.4°
